GW3988 Weather Reports


time (UTC)temp
C
wind
direction
speed
KPH
gust
KPH
rain 1hr
cm
rain 24hr
cm
rain mn
cm
humidity
%
barometer
mb
20260906174540 36 271 1.6 8.0 0.00 0.00 0.00 47 1012.3
20260906173040 36 296 0.0 4.8 0.00 0.00 0.00 48 1012.5
20260906171537 36 314 0.0 3.2 0.00 0.00 0.00 49 1012.9
20260906170031 35 292 0.0 8.0 0.00 0.00 0.00 50 1013.0
20260906164528 35 255 0.0 8.0 0.00 0.00 0.00 51 1013.1
20260906163024 35 330 0.0 4.8 0.00 0.00 0.00 51 1013.3
20260906161536 35 312 1.6 6.4 0.00 0.00 0.00 51 1013.2
20260906160021 34 330 0.0 4.8 0.00 0.00 0.00 54 1013.2
20260906154517 33 316 1.6 4.8 0.00 0.00 0.00 56 1013.1
20260906153015 33 286 1.6 4.8 0.00 0.00 0.00 57 1013.0
20260906151513 32 297 0.0 4.8 0.00 0.00 0.00 60 1013.0
20260906150010 32 302 0.0 3.2 0.00 0.00 0.00 62 1013.0
20260906144506 31 321 1.6 4.8 0.00 0.00 0.00 65 1013.2
20260906143004 31 283 1.6 4.8 0.00 0.00 0.00 65 1013.2
20260906141621 30 309 0.0 3.2 0.00 0.00 0.00 68 1013.1
20260906140058 29 297 0.0 4.8 0.00 0.00 0.00 71 1013.1
20260906134553 28 318 0.0 4.8 0.00 0.00 0.00 73 1013.1
20260906133057 27 314 0.0 3.2 0.00 0.00 0.00 75 1012.9
20260906131600 27 283 0.0 1.6 0.00 0.00 0.00 79 1012.7
20260906130056 26 291 0.0 3.2 0.00 0.00 0.00 82 1012.7
20260906124545 25 307 0.0 1.6 0.00 0.00 0.00 86 1012.5
20260906123043 24 294 0.0 1.6 0.00 0.00 0.00 88 1012.2
20260906121542 24 295 0.0 1.6 0.00 0.00 0.00 89 1012.2
20260906120043 24 314 0.0 0.0 0.00 0.00 0.00 89 1011.9
20260906114547 24 305 0.0 0.0 0.00 0.00 0.00 88 1012.1
20260906113037 24 281 0.0 1.6 0.00 0.00 0.00 88 1011.9
20260906111543 24 332 0.0 3.2 0.00 0.00 0.00 88 1011.8
20260906110036 24 304 0.0 1.6 0.00 0.00 0.00 88 1011.8
20260906104536 24 310 0.0 3.2 0.00 0.00 0.00 88 1011.7
20260906103034 24 286 0.0 1.6 0.00 0.00 0.00 88 1011.6
20260906101536 24 309 0.0 0.0 0.00 0.00 0.00 87 1011.6
20260906100034 24 276 0.0 0.0 0.00 0.00 0.00 87 1011.4
20260906094529 25 318 0.0 1.6 0.00 0.00 0.00 88 1011.5
20260906093026 25 302 0.0 0.0 0.00 0.00 0.00 87 1011.4
20260906091526 25 323 0.0 1.6 0.00 0.00 0.00 86 1011.3
20260906090025 25 297 0.0 1.6 0.00 0.00 0.00 85 1011.2
20260906084524 25 340 0.0 1.6 0.00 0.00 0.00 86 1011.2
20260906083021 25 303 0.0 1.6 0.00 0.00 0.00 87 1011.0
20260906081522 25 229 0.0 1.6 0.00 0.00 0.00 88 1011.1
20260906080023 26 274 0.0 0.0 0.00 0.00 0.00 87 1011.1
20260906074516 26 332 0.0 0.0 0.00 0.00 0.00 86 1011.1
20260906073016 26 293 0.0 0.0 0.00 0.00 0.00 84 1010.9
20260906071521 26 310 0.0 0.0 0.00 0.00 0.00 83 1011.1
20260906070010 26 311 0.0 0.0 0.00 0.00 0.00 82 1011.1
20260906064508 26 291 0.0 0.0 0.00 0.00 0.00 80 1011.2
20260906063005 27 290 0.0 0.0 0.00 0.00 0.00 78 1011.3
20260906061503 27 297 0.0 0.0 0.00 0.00 0.00 77 1011.3
20260906060001 27 295 0.0 0.0 0.00 0.00 0.00 76 1011.3
20260906054612 27 271 0.0 0.0 0.00 0.00 0.00 74 1011.4
20260906053057 27 300 0.0 0.0 0.00 0.00 0.00 75 1011.5
20260906051558 28 304 0.0 0.0 0.00 0.00 0.00 72 1011.5
20260906050053 28 276 0.0 0.0 0.00 0.00 0.00 71 1011.4
20260906044552 28 276 0.0 0.0 0.00 0.00 0.00 70 1011.4
20260906043052 28 316 0.0 0.0 0.00 0.00 0.00 69 1011.4
20260906041551 28 281 0.0 0.0 0.00 0.00 0.00 70 1011.3
20260906040050 29 269 0.0 0.0 0.00 0.00 0.00 69 1011.2
20260906034601 29 281 0.0 0.0 0.00 0.00 0.00 68 1011.1
20260906033156 30 283 0.0 0.0 0.00 0.00 0.00 66 1011.0
20260906031550 30 294 0.0 1.6 0.00 0.00 0.00 64 1010.9
20260906030048 30 347 0.0 1.6 0.00 0.00 0.00 64 1010.8
20260906024553 30 293 0.0 0.0 0.00 0.00 0.00 62 1010.5
20260906023048 31 320 0.0 1.6 0.00 0.00 0.00 62 1010.4
20260906021551 31 318 0.0 1.6 0.00 0.00 0.00 61 1010.1
20260906020046 31 314 0.0 0.0 0.00 0.00 0.00 60 1009.9
20260906014550 31 326 0.0 3.2 0.00 0.00 0.00 60 1009.8
20260906013047 32 306 0.0 3.2 0.00 0.00 0.00 58 1009.6
20260906011545 32 311 0.0 1.6 0.00 0.00 0.00 56 1009.4
20260906004556 33 323 0.0 3.2 0.00 0.00 0.00 53 1009.5
20260906003044 34 333 0.0 3.2 0.00 0.00 0.00 51 1009.4
20260906001558 34 290 0.0 3.2 0.00 0.00 0.00 50 1009.4
20260906000043 35 317 0.0 1.6 0.00 0.00 0.00 48 1009.4
20260905234542 35 307 0.0 1.6 0.00 0.00 0.00 46 1009.3
20260905233042 36 276 0.0 11.3 0.00 0.00 0.00 43 1009.2
20260905231541 36 247 0.0 4.8 0.00 0.00 0.00 43 1009.2
20260905230041 36 307 0.0 4.8 0.00 0.00 0.00 42 1009.2
20260905224539 36 273 1.6 6.4 0.00 0.00 0.00 43 1009.2
20260905223049 37 307 1.6 8.0 0.00 0.00 0.00 42 1009.2
20260905221542 37 311 1.6 6.4 0.00 0.00 0.00 41 1009.4
20260905220035 37 319 0.0 1.6 0.00 0.00 0.00 38 1009.4
20260905214538 37 289 0.0 8.0 0.00 0.00 0.00 36 1009.6
20260905213034 37 320 0.0 3.2 0.00 0.00 0.00 37 1009.8
20260905211529 37 301 0.0 6.4 0.00 0.00 0.00 38 1010.0
20260905210043 37 319 0.0 4.8 0.00 0.00 0.00 37 1010.2
20260905204530 37 302 0.0 9.7 0.00 0.00 0.00 40 1010.2
20260905203025 37 276 1.6 8.0 0.00 0.00 0.00 38 1010.4
20260905201528 37 283 0.0 6.4 0.00 0.00 0.00 39 1010.7
20260905200032 37 270 0.0 8.0 0.00 0.00 0.00 41 1010.9
20260905194523 37 316 0.0 11.3 0.00 0.00 0.00 39 1010.9
20260905193023 38 310 4.8 14.5 0.00 0.00 0.00 37 1011.1
20260905191522 38 319 1.6 6.4 0.00 0.00 0.00 38 1011.1
20260905190021 37 314 0.0 9.7 0.00 0.00 0.00 39 1011.4
20260905184532 37 283 0.0 8.0 0.00 0.00 0.00 42 1011.5
20260905183023 36 280 0.0 4.8 0.00 0.00 0.00 44 1011.8